Regional Weather Roundup
Issued by NWS

Home | Current Version | Previous Version | Text Only | Print | Product List | Glossary Off
Versions: 1 2 3 4 5 6 7 8 9 10 11 12 13 14 15 16 17 18 19 20 21 22 23 24 25 26 27 28 29 30 31 32 33 34 35 36 37 38 39 40 41 42 43 44 45 46 47 48 49 50

000
ASUS45 KBOU 251007
RWRCO

WEATHER ROUNDUP FOR COLORADO
NATIONAL WEATHER SERVICE DENVER/BOULDER CO
400 AM MDT TUE JUL 25 2017

NOTE: "FAIR" INDICATES FEW OR NO CLOUDS BELOW 12000 FEET WITH NO
SIGNIFICANT WEATHER AND/OR OBSTRUCTIONS TO VISIBILITY.

COZ001>005-013-030-031-251100-
...NORTHWEST COLORADO...

CITY           SKY/WX    TMP DP  RH WIND       PRES   REMARKS
CRAIG          FAIR      67  51  56 W7        30.21R
HAYDEN         FAIR     N/A N/A N/A N7        30.22R
MEEKER         LGT RAIN  64  57  78 SW5       30.25R
RABBIT EARS PA FAIR      54  41  62 NW8       30.51S
STEAMBOAT SPGS FAIR      62  46  56 CALM      30.24S
WALDEN         FAIR      57  41  54 SE5       30.32S
$$

COZ006>008-011-251100-
...WEST CENTRAL VALLEYS...

CITY           SKY/WX    TMP DP  RH WIND       PRES   REMARKS
GRAND JUNCTION MOCLDY    66  63  90 S3        30.15S
MONTROSE       CLOUDY    64  60  87 CALM      30.23S
EAGLE          FAIR      64  53  67 E6        30.27R
RIFLE          LGT RAIN  63  61  93 CALM      30.21S
DELTA          RAIN      67  61  83 N5        30.19S
NUCLA          MOCLDY    63  59  88 CALM      30.25S
$$

COZ017>023-064>068-251100-
...SOUTHWEST COLORADO...

CITY           SKY/WX    TMP DP  RH WIND       PRES   REMARKS
DURANGO        CLOUDY    61  56  83 CALM      30.26F
CORTEZ         CLOUDY    64  62  93 NE3       30.20S
PAGOSA SPRINGS CLOUDY    59  57  94 CALM      30.35S
TELLURIDE      CLOUDY    55  51  85 CALM      30.43F
WOLF CREEK PAS MOCLDY    45  43  93 S7        30.67S
$$

COZ009-010-012-014-032>034-037-058>063-251100-
...CENTRAL COLORADO...

CITY           SKY/WX    TMP DP  RH WIND       PRES   REMARKS
ASPEN          FAIR      59  50  72 SW5       30.33S
BUENA VISTA    LGT RAIN  60  50  69 CALM      30.37R
COPPER MTN     MOCLDY    55  37  50 S7        30.64S
BERTHOUD PASS  CLOUDY    48  34  57 NW9       30.66F
COTTONWOOD PAS LGT RAIN  57  46  67 SW16G22   30.49R
GUNNISON       LGT RAIN  59  54  83 VRB5      30.37R
KREMMLING      FAIR      68  45  42 CALM      30.29S
LEADVILLE      CLOUDY    51  43  74 CALM      30.47R
MONARCH PASS     N/A     45  43  93 W16       30.74S
SALIDA         CLOUDY    68  50  52 S6        30.40R
SUNLIGHT       CLOUDY    50  41  71 S5        30.56F
WILKERSON PASS FAIR      52  39  62 SW15G21   30.58F
$$

COZ069>075-251100-
...SAN LUIS VALLEY/SANGRE DE CRISTO MOUNTAINS...

CITY           SKY/WX    TMP DP  RH WIND       PRES   REMARKS
ALAMOSA        CLOUDY    60  55  83 E8        30.32F
DEL NORTE      CLOUDY    59  51  75 W7        30.37S
LA VETA PASS   NOT AVBL
SAGUACHE         N/A    N/A N/A N/A MISG        N/A
$$

COZ035-036-038>040-251100-
...NORTHERN COLORADO FRONT RANGE...

CITY           SKY/WX    TMP DP  RH WIND       PRES   REMARKS
DENVER INTL AP MOCLDY    70  51  51 S5        30.04F
DMNS CITY PARK   N/A     72  46  39 SW5       30.05S
AURORA         MOCLDY    69  52  54 S10       30.07F
FRONT RANGE AP FAIR      70  52  52 S9        30.06F
ERIE MUNI ARPT FAIR      63  51  65 CALM      30.03F
BOULDER MUN AP FAIR      72  45  37 CALM      30.04F
CENTENNIAL     FAIR      70  46  42 S10       30.09F
BROOMFIELD     FAIR      70  46  43 SE3       30.08S
FORT COLLINS   FAIR      64  49  57 N7        30.03F
LONGMONT       FAIR      67  50  55 W3        30.04F
$$

COZ041-046-047-076>085-087-088-251100-
...PIKES PEAK/PALMER DIVIDE AND SOUTHERN FOOTHILLS...

CITY           SKY/WX    TMP DP  RH WIND       PRES   REMARKS
COLO. SPRINGS  MOCLDY    67  57  70 N7        30.16R
A. F. ACADEMY  FAIR      61  50  66 N8        30.17S
SCHRIEVER AFB  MOCLDY    64  56  74 N7        30.16R
CHEYENNE MTN   MOCLDY    69  44  40 CALM      30.16R
ELLICOTT       NOT AVBL
FALCON           N/A     65  52  62 N3        30.21S
FORT CARSON    FAIR      66  52  60 NW6       30.12S HAZE
LIMON          FAIR      61  60  97 CALM      30.10F
MONUMENT HILL  FAIR      63  50  63 SW7       30.22F
CANON CITY     CLEAR     75  52  43 W10       30.09S
WALSENBURG     FAIR      73  52  46 W12       30.16S
TRINIDAD       FAIR      69  51  52 N9        30.14S
$$

COZ042>045-048>051-090-091-251100-
...NORTHEAST COLORADO...

CITY           SKY/WX    TMP DP  RH WIND       PRES   REMARKS
GREELEY ARPT   FAIR      63  55  75 CALM      30.01F
AKRON          FAIR      69  60  73 S10       30.03S
BURLINGTON     FAIR      69  64  84 S14       30.04F
WRAY           NOT AVBL
YUMA           FAIR      68  55  64 S9        30.00S
STERLING       FAIR      66  63  88 SW5       29.97S
HOLYOKE        FAIR      73  64  73 S8        29.98S
FORT MORGAN    NOT AVBL
$$

COZ086-089-092>099-251100-
...SOUTHEAST COLORADO...

CITY           SKY/WX    TMP DP  RH WIND       PRES   REMARKS
PUEBLO         FAIR      69  53  56 CALM      30.04R
LA JUNTA       FAIR      70  59  68 SE3       30.02F
LAMAR          FAIR      72  62  71 S7        30.00S
SPRINGFIELD      N/A     67  63  87 S14       30.08F
$$



USA.gov is the U.S. government's official web portal to all federal, state and local government web resources and services.